Погода в Вельске

Погода в Вельске : погода сейчас, прогноз погоды и архив. Всё, что Вы хотите узнать о погоде в Вельске!

Поиск расширенной информации на нашем сайте:

Другие новости

Новости СМИ2

Главная страница сайта

Новости сайта

02.10.2013

Напоминаем, что на нашем новом сайте вы можете получить высокодетализированные прогнозы погоды по пунктам России, СНГ и мира (включающие важные для авиации метеовеличины, такие как направление и скорость ветра, видимость, явления погоды, количество и форма облачности, нижняя и верхняя граница облачности), а также ознакомиться с разнообразными материалами по авиационной метеорологии и подборкой полезных ссылок на эту тему.

Сайт Метеоцентр.Азия посвящён разработке технологий оптимизации авиаметеорологического обслуживания, включая проектирование и перспективное создание нескольких автоматизированных авиаметеорологических систем:
- система выпуска высокодетальных прогностических карт явлений погоды для нижнего воздушного пространства по России и ближнему зарубежью;
- система верификации прогнозов TAF (выпускаемых синоптиками официальных АМСГ РФ и ближнего зарубежья) и AUTOTAF (выпускаемых сайтом Метеоцентр.Азия) - выявление ошибок, онлайн-сопоставление с фактической погодой METAR, автоматическое внесение коррективов в прогнозы при резком отклонении фактической погоды от прогноза, подсчёт оправдываемости прогнозов по элементам и в целом;
- система обработки, анализа и отображения авиаметеорологической информации для применения провайдерами метеорологической информации.


Погода в Вельске - сегодня

Время (UTC), дата Ветер
(°,м/с) 
Видим.   Явления Облачность Т
(°С)
Тd
(°С)
f(%) Тe
(°С)
Pmin
(гПа)
dP
(гПа)
Po
(мм)
O2
(г/м3)
Тmin Tmax R s Состояние
почвы
18 22.05.17 тихо ()   20000 м    3/0 средняя 
[Ac trans]
+6 -3.2 52 +6  1012.5  0.3  751  296           
21 22.05.17 300 (СЗ) 20000 м    3/0 верхняя 
[Ci fib]
+1.1 -2.8 75 +2  1012.8  0.1  751  302           
00 23.05.17 270 (З) 20000 м    5/0 верхняя 
[Ci fib]
-1.5 -3.7 85 -1  1012.3  -0.6  751  305           
03 23.05.17 тихо ()   20000 м    8/0 средняя, верхняя 
[Ac trans|Ci fib]
+0.9 -2.2 80 +1  1011.7  -0.5  750  302  -1.7        влажная 
06 23.05.17 250 (З) 20000 м    5/1 600 м средняя, верхняя 
[Cu hum|Ac trans|Ci fib]
+11.4 -4.1 33 +12  1009.9  -1.3  749  290           
09 23.05.17 220 (ЮЗ) 20000 м    9/5 600 м средняя 
[Cu hum|Ac trans]
+12.4 -4.4 31 +13  1008.3  -1.5  748  289           
12 23.05.17 230 (ЮЗ) 20000 м    9/8 600 м средняя 
[Cu Sc|Ac trans]
+13.7 -4.7 28 +14  1007.4  -0.9  747  287           
15 23.05.17 250 (З) 20000 м    9/5 600 м средняя 
[Sc|Ac trans]
+13.5 -2.4 33 +14  1006.4  -0.9  747  287    +14.9       
18 23.05.17 020 (С) 20000 м  в посл. час ливневой дождь  9/8 600 м кучево-дожд., средняя 
[Cb cap|Ac trans]
+11 +1.1 50 +11  1006.9  0.4  747  289           
21 23.05.17 330 (СЗ) 20000 м  в посл. час ливневой дождь  9/8 450 м кучево-дожд., средняя 
[Cb cap|Ac trans]
+8.7 +1.9 62 +9  1008.5  1.5  748  292           
00 24.05.17 350 (С) 20000 м  {ливн. осадки}  9/4 600 м средняя 
[Sc|Ac trans]
+4.7 -0.9 67 +4  1010.8  2.1  750  297           
03 24.05.17 010 (С) 20000 м    4/3 600 м средняя 
[Sc|Ac trans]
+4.4 -1.5 65 +4  1012.9  2.1  751  298  +3.2    0.0    влажная 
06 24.05.17 020 (С) 20000 м    4/3 1000 м верхняя 
[Cu hum|Ci fib]
+7.3 -5.7 39 +7  1014.4  1.6  753  296           
09 24.05.17 020 (С) 20000 м    1/0 верхняя 
[Ci fib]
+10.3 -6.2 31 +10  1014.8  0.4  753  293           
12 24.05.17 310 (СЗ) 20000 м    3/0 верхняя 
[Ci fib]
+12.6 -7.3 24 +14  1014.6  0.1  753  291           
15 24.05.17 330 (СЗ) 20000 м    ясно 
+12.7 -7.7 23 +14  1014.3  -0.3  753  291    +13.7       
18 24.05.17 тихо ()   20000 м    3/0 верхняя 
[Ci fib]
+9.6 -6.7 31 +10  1014.9  0.4  753  294           
21 24.05.17 тихо ()   20000 м    ясно 
+2.6 -2.8 68 +3  1016  0.8  754  301           
00 25.05.17 тихо ()   20000 м    ясно 
-0.8 -3.5 82 -1  1016.4  0.3  754  305           
03 25.05.17 тихо ()   20000 м    ясно 
+4 -1.5 67 +4  1015.7  -0.5  753  299  -1.1        влажная 
06 25.05.17 160 (Ю) 20000 м    ясно 
+14.4 -4.5 27 +15  1013.9  -1.3  752  288           
09 25.05.17 160 (Ю) 20000 м    1/0 верхняя 
[Ci fib]
+18.2 -6.1 19 +19  1011.6  -2.2  751  284           
12 25.05.17 130 (ЮВ) 20000 м    8/0 верхняя 
[Cs]
+20.2 -1.1 24 +20  1008.2  -3.3  748  281           
15 25.05.17 130 (ЮВ) 20000 м    10/0 средняя 
[Ac As]
+20.1 -0.2 26 +20  1004.8  -3.3  746  280    +20.7       
18 25.05.17 230 (ЮЗ) 20000 м    10/8 450 м средняя 
[Sc|Ac As]
+15.4 +8.5 63 +16  1002.6  -2.3  744  282           
Время (UTC), дата Ветер
(°,м/с) 
Видим.   Явления Облачность Т
(°С)
Тd
(°С)
f(%) Тe
(°С)
Pmin
(гПа)
dP
(гПа)
Po
(мм)
O2
(г/м3)
Тmin Tmax R s Состояние
почвы

Для получения пояснительной информации подведите курсор к названию столбца.

ПОГОДА в Вельске - архив

Всё, что Вы хотите узнать о погоде в Вельске - удобно и подробно!

Выберите нужную дату (начиная с 1 января 2015* года) и нажмите кнопку "Найти".
Будут отображены архивные сводки погоды по пункту Вельск, начиная с указанной даты.


Отображать данные в формате CSV (для использования в таблицах Excel)


Внимание! Наш архив погоды предназначен исключительно для личного некоммерческого использования в познавательных целях. Если Вам необходимы официальные справки о состоянии погоды (для производственных, юридических, коммерческих и т.п. целей), обращайтесь в органы Росгидромета.

*Примечание: данная дата относится к архиву по метеостанциям СССР (Россия, СНГ, Балтия).
Архив по метеостанциям Зарубежной Европы и Азии (кроме Китая) хранится 10 дней, по другим регионам земного шара (Китай, Африка, Америка, Австралия, Океания) - 1 день.

Вельск - район местоположения метеостанции


Название, широта, долгота, высота метеостанции:
Вельск 61.1°ш. 42.1°д. 91 м над ур. моря [Российская Федерация]

Дополнительная информация

В oтличие oт бoльшинства пoгoдных сайтoв мы публикуем пoдрoбную метеoинфoрмацию в детальнoм прoфессиoнальнoм фoрмате.

Характеристики температуры и влажнoсти вoздуха измеряются на высoте 2 м в тени вдали oт зданий и деревьев.
Скoрoсть ветра измеряется на высoте 10 м (на урoвне рoста челoвека скoрoсть ветра ниже в 1.5-2 раза). Если метеoстанция нахoдится в гoрoде или в лесу, тo скoрoсть ветра занижена на 2-4 м/с пo сравнению с oткрытым местoм. Скoрoсть ветра над акватoриями крупных рек и oзёр, а также на вершинах хoлмoв на 2-5 м/с выше, чем в oбычных услoвиях.
Атмoсфернoе давление в разных тoчках местнoсти мoжет значительнo oтличаться oт давления на метеoстанции, в зависимoсти oт услoвий рельефа (при пoдъёме на 10 м давление пoнижается примернo на 1 мм рт.ст.).